This is the latest recevied weather packets stored in our database for station/object N0NB. If no packets are shown the sender has not sent any weather packets the latest 10 day(s).
| Time | Temp. | Humidity | Pressure | Rain* | Wind** | Luminosity | Snow |
|---|---|---|---|---|---|---|---|
| 1788039015 | 34.44° C | 49% | 1008.9 hPa | 0 mm | - | 535 W/m² | - |
| 1788038415 | 34.44° C | 51% | 1008.9 hPa | 0 mm | - | 561 W/m² | - |
| 1788037815 | 34.44° C | 52% | 1009 hPa | 0 mm | - | 584 W/m² | - |
| 1788037221 | 34.44° C | 52% | 1009.2 hPa | 0 mm | - | 608 W/m² | - |
| 1788036615 | 34.44° C | 53% | 1009.3 hPa | 0 mm | - | 662 W/m² | - |
| 1788036015 | 33.89° C | 54% | 1009.5 hPa | 0 mm | - | 206 W/m² | - |
| 1788035415 | 33.89° C | 54% | 1009.7 hPa | 0 mm | - | 814 W/m² | - |
| 1788034817 | 33.33° C | 57% | 1009.9 hPa | 0 mm | - | 719 W/m² | - |
| 1788034217 | 32.22° C | 59% | 1009.9 hPa | 0 mm | - | 310 W/m² | - |
| 1788033617 | 32.22° C | 57% | 1010.1 hPa | 0 mm | - | 294 W/m² | - |
| 1788033017 | 32.22° C | 60% | 1010.1 hPa | 0 mm | - | 294 W/m² | - |
| 1788032417 | 32.22° C | 59% | 1010.2 hPa | 0 mm | - | 349 W/m² | - |
| 1788031822 | 31.67° C | 61% | 1010.4 hPa | 0 mm | - | 397 W/m² | - |
| 1788031217 | 31.11° C | 61% | 1010.5 hPa | 0 mm | - | 431 W/m² | - |
| 1788030617 | 31.11° C | 62% | 1010.5 hPa | 0 mm | - | 326 W/m² | - |
| 1788030017 | 31.11° C | 60% | 1010.7 hPa | 0 mm | - | 368 W/m² | - |
| 1788029417 | 31.11° C | 58% | 1010.8 hPa | 0 mm | - | 323 W/m² | - |
| 1788028815 | 30.56° C | 59% | 1010.9 hPa | 0 mm | - | 369 W/m² | - |
| 1788028217 | 30° C | 63% | 1011 hPa | 0 mm | - | 384 W/m² | - |
| 1788027617 | 30° C | 63% | 1011.2 hPa | 0 mm | - | 359 W/m² | - |
| 1788027017 | 29.44° C | 61% | 1011.1 hPa | 0 mm | - | 367 W/m² | - |
| 1788026417 | 29.44° C | 61% | 1011.3 hPa | 0 mm | - | 414 W/m² | - |
| 1788025817 | 29.44° C | 61% | 1011.6 hPa | 0 mm | - | 493 W/m² | - |
| 1788025217 | 29.44° C | 58% | 1011.6 hPa | 0 mm | - | 426 W/m² | - |
| 1788024617 | 29.44° C | 59% | 1011.8 hPa | 0 mm | - | 544 W/m² | - |
* Rain latest hour (hover to see other rain measurements)
** Current wind speed in m/s (hover to see current wind gust speed)